Retour au catalogue

STARLINK-3903

ActifCommunicationsVLEO
NORAD 52462·PAYLOAD·🇺🇸 United States

Lancé May 6, 2022 depuis Cape Canaveral Space Force Station

Loading…

Prochains Passages (prochaines 24 heures)

TLE

FraisSource: CelesTrak SupGP

Époque: Sep 14, 2026, 21:44 UTC

1 52462C 22049M   26257.90604167  .00026721  00000+0  76458-3 0  2578
2 52462  53.1578 279.8546 0001248  92.1410 260.6644 15.35381828    16

Suivez STARLINK-3903 en temps réel avec AllMySat

Download on the App Store